Theta_e
294 295 294 294 294 295 295 296 297 297 297 297 298 298 298 298 298 297 297 297 298 297 297 296 296 296 296 296 295 295 295 294 294 294 293 294 293 294 293 292 291 290 290 290 290 291 291 291 292 291 292 290 291 290 289 290 291 290 290 291 291 294
294 294 295 295 295 295 295 295 296 296 296 297 297 296 296 296 296 296 296 295 296 295 295 295 295 295 295 294 294 294 293 292 293 292 293 292 291 291 289 288 288 288 289 289 290 289 289 289 289 288 288 288 288 288 289 289 289 290 289 290 290 291
293 293 293 294 293 293 295 296 296 296 296 296 296 296 295 295 295 295 294 294 294 294 294 294 294 293 293 293 293 293 292 292 291 291 289 288 289 286 288 287 287 286 286 286 287 286 287 287 289 289 289 288 288 288 287 289 288 288 288 286 289 288
293 293 293 292 294 294 294 295 295 295 295 295 295 295 295 294 294 294 294 294 294 293 293 292 292 292 292 292 291 290 290 289 289 286 287 288 285 285 286 286 286 286 285 285 286 286 286 287 289 287 288 288 288 288 290 286 287 287 287 286 288 288
293 293 293 294 294 294 294 293 294 294 293 293 293 294 293 294 294 294 293 293 292 291 291 290 290 289 289 289 289 288 288 287 286 285 287 286 285 285 286 286 286 285 285 286 286 287 287 287 286 286 286 287 285 286 287 285 285 286 286 287 288 288
291 293 293 294 294 293 293 293 293 293 292 292 292 292 292 292 292 292 292 291 290 289 289 289 288 288 288 288 287 287 285 285 285 285 285 284 285 287 286 285 286 286 286 286 286 286 286 286 286 286 285 285 285 286 287 286 284 285 285 286 287 287
292 294 294 294 293 292 292 292 292 291 291 290 291 291 290 291 290 290 290 290 289 288 288 287 287 288 287 287 286 286 285 285 285 285 286 286 286 285 286 287 285 286 286 286 285 285 284 285 284 285 285 285 284 284 284 284 285 284 285 285 286 287
293 293 292 293 292 292 292 291 290 290 290 289 289 291 290 289 289 289 289 289 289 288 287 287 287 287 286 286 285 285 285 285 285 285 285 284 286 285 284 284 284 283 283 283 283 283 284 284 284 284 284 285 285 284 283 283 283 283 284 284 285 285
293 293 293 292 291 290 290 290 290 289 290 289 288 288 290 289 289 288 288 288 288 287 286 286 286 286 285 285 285 285 285 285 284 285 285 283 283 282 283 282 282 283 283 284 283 284 284 284 284 284 283 284 284 284 283 285 284 285 284 284 285 285
293 292 291 290 291 290 290 289 290 290 290 289 288 288 289 289 288 288 287 287 287 287 286 285 285 285 285 284 284 284 284 284 284 283 282 281 283 282 283 283 283 283 282 282 282 283 282 282 283 283 283 283 284 284 284 284 285 285 284 284 285 284
293 292 291 291 290 290 289 289 288 288 287 287 287 288 288 287 288 287 287 287 287 286 285 285 284 284 284 284 284 284 284 283 281 281 281 281 281 283 282 282 282 282 282 282 282 283 283 284 285 285 284 285 285 284 285 285 284 284 284 284 283 283
293 292 292 291 291 290 290 289 289 288 288 288 287 288 286 287 287 287 286 286 286 285 284 285 284 284 284 284 283 282 281 281 281 281 280 281 280 280 281 281 281 281 281 282 282 282 283 284 284 285 288 290 287 285 285 284 284 283 283 283 283 283
293 292 291 291 290 290 290 290 289 288 287 287 287 287 286 286 286 286 286 285 284 284 284 284 284 283 283 281 281 280 280 281 280 280 280 280 280 280 280 280 280 280 280 281 281 282 283 284 284 287 290 290 291 288 284 283 283 283 282 282 282 282
293 292 292 291 290 290 290 289 288 288 288 287 287 287 286 286 286 285 285 284 284 284 284 283 283 282 281 281 280 280 280 279 278 279 279 279 279 279 279 279 280 280 279 280 280 280 282 282 285 288 289 290 290 290 286 284 283 283 283 282 282 282
294 293 292 291 290 290 290 290 289 288 288 287 287 286 286 285 285 285 285 284 284 283 283 282 282 281 281 280 279 279 279 277 277 276 277 277 279 279 279 279 279 279 279 279 279 280 281 280 285 287 289 290 290 290 288 284 283 283 282 282 282 282
294 293 292 291 291 291 290 289 289 288 287 287 286 286 286 285 285 284 284 283 283 283 282 282 281 281 280 279 279 278 278 276 278 277 277 277 278 278 278 277 278 279 279 279 279 279 280 280 283 287 288 288 289 289 289 284 283 282 282 282 282 282
293 291 291 291 291 289 288 287 287 287 286 286 286 286 285 285 284 283 283 283 282 282 281 281 280 280 279 278 277 276 276 277 276 276 276 276 277 277 278 278 277 279 277 278 276 278 279 280 285 286 287 288 288 289 288 283 282 282 281 282 281 281
293 292 292 290 289 288 288 287 287 287 286 286 286 285 285 284 284 283 282 282 282 281 280 280 279 279 278 278 276 275 275 275 275 275 276 276 276 276 276 276 276 277 277 277 276 277 278 279 284 285 286 287 287 288 284 282 281 281 281 281 281 281
293 291 289 288 289 288 288 287 287 286 286 285 285 284 284 283 283 282 282 281 281 280 279 279 278 277 276 276 275 273 274 274 274 275 275 275 275 275 275 275 275 276 276 275 275 276 277 277 281 284 285 286 287 286 282 282 281 281 281 281 281 282
290 289 289 288 288 288 287 286 286 286 286 285 284 283 283 282 282 281 281 280 279 279 278 278 277 275 274 273 273 274 274 274 273 273 274 274 275 274 275 275 275 274 274 274 274 275 276 277 280 283 284 285 286 286 282 281 280 280 280 280 281 281
289 288 288 288 287 286 286 286 286 285 285 284 284 283 282 281 280 280 279 279 278 277 277 276 276 275 273 272 272 273 272 272 273 274 273 273 272 274 274 275 274 274 273 273 274 278 277 276 278 282 284 284 285 284 281 281 280 279 279 280 280 281
287 287 287 287 287 286 286 285 285 284 284 283 283 282 281 280 279 279 278 277 277 277 276 275 274 273 272 271 271 271 272 273 274 273 272 272 272 272 272 272 272 273 274 274 275 275 275 276 276 278 283 283 284 284 282 280 279 278 278 279 280 280
289 288 288 288 287 286 285 285 284 283 283 282 281 280 279 278 278 277 277 277 276 275 275 274 273 271 271 272 272 273 274 273 272 271 269 270 271 270 271 272 273 273 274 274 274 274 273 274 276 277 281 282 282 283 282 279 278 279 279 279 279 279
286 285 285 285 285 285 284 284 283 282 282 281 279 278 277 277 277 277 276 275 274 274 273 272 271 271 271 272 272 271 270 270 269 269 269 269 269 270 271 271 272 273 273 273 272 271 274 274 277 276 279 281 281 282 283 280 279 281 280 278 278 279
284 284 283 283 283 283 283 283 282 281 280 279 276 276 276 276 276 276 275 274 274 273 271 270 271 271 271 270 270 269 268 268 268 268 269 269 269 270 270 271 271 271 272 272 273 271 273 274 275 278 277 279 281 281 282 282 281 282 280 279 278 279
282 280 279 279 280 281 281 282 281 279 278 275 276 275 275 275 275 275 274 274 272 271 270 270 270 269 268 268 268 267 267 267 267 267 268 269 269 269 269 270 270 270 271 271 272 273 273 273 274 276 278 278 280 280 281 282 282 282 280 280 279 280
279 278 277 276 276 277 278 278 279 277 275 275 275 275 275 274 274 273 272 271 270 269 267 267 267 267 266 266 266 266 267 266 267 267 266 268 268 268 268 268 269 269 269 270 270 271 272 273 274 274 276 278 278 280 280 281 281 281 281 278 279 280
277 276 275 274 273 275 275 277 278 276 274 275 275 275 274 273 272 271 270 269 268 266 266 266 267 267 266 266 266 266 266 267 267 267 267 267 265 264 266 267 268 268 268 269 270 271 272 273 273 273 274 275 276 278 279 279 280 279 280 279 279 280
275 274 274 273 271 272 273 273 273 274 274 274 274 273 272 271 270 270 269 268 268 266 266 265 265 265 265 264 265 265 266 266 266 265 266 265 264 264 265 265 267 268 268 269 269 270 271 271 272 272 273 274 276 276 277 277 277 278 279 278 279 279
275 273 273 272 271 271 271 272 272 273 274 274 273 271 270 270 269 268 267 266 266 266 265 265 270 267 264 264 264 265 265 264 264 264 264 265 264 264 264 265 266 267 268 268 270 270 270 271 271 271 272 274 275 276 276 276 277 277 277 277 277 278
274 273 272 271 270 270 271 271 272 272 272 271 270 270 269 269 269 268 267 266 266 266 267 264 263 263 263 263 262 264 264 264 263 264 263 265 264 263 265 265 267 267 266 267 269 270 270 271 270 271 276 276 278 276 275 275 275 276 276 277 279 278
274 272 271 270 270 270 271 270 270 270 270 269 269 269 268 268 268 266 266 266 265 264 264 263 262 263 263 262 262 263 264 269 272 270 267 264 273 275 276 276 269 270 269 269 268 270 271 270 271 276 277 278 278 278 278 278 278 279 277 278 280 278
272 271 270 269 269 270 270 269 269 268 268 268 269 268 268 268 267 267 266 265 263 264 263 261 262 262 262 262 262 262 263 262 264 271 273 274 273 273 274 275 276 275 275 272 269 269 275 275 276 276 277 277 277 277 278 278 278 278 279 279 276 274
271 270 269 269 269 269 269 268 267 267 267 267 267 267 266 267 267 266 264 263 263 265 264 262 263 262 261 261 262 262 261 261 259 261 269 271 270 272 273 274 274 273 273 274 273 271 269 273 275 276 276 276 276 276 277 277 278 278 278 278 277 272
271 270 268 268 268 269 268 266 265 265 265 265 265 266 265 265 264 263 262 262 263 263 264 263 262 262 261 261 261 261 261 259 259 259 259 263 269 271 272 272 272 272 272 273 273 274 273 274 274 275 275 275 276 276 276 277 277 277 276 276 272 271
269 268 267 267 268 267 266 265 264 264 263 263 264 263 262 262 261 261 261 262 262 261 261 262 261 261 261 261 261 260 259 259 259 258 259 259 259 261 266 269 270 270 271 271 272 273 273 273 273 274 274 275 275 275 275 275 273 274 275 273 270 270
267 266 266 267 266 265 264 263 262 262 261 261 261 260 259 259 259 259 263 264 263 261 262 262 263 262 261 260 259 259 259 259 259 261 260 259 259 259 259 258 260 266 269 268 269 271 272 272 273 273 274 274 274 274 275 274 268 267 268 269 271 271
265 265 265 265 265 264 263 262 261 261 260 260 259 259 258 259 260 261 262 262 263 262 262 262 261 262 261 261 259 259 258 260 260 260 259 260 260 259 259 259 259 261 266 268 268 269 270 271 272 272 273 272 273 273 273 266 266 267 267 267 268 267
Wind_Speed
5 5 5 4 4 5 5 6 7 7 6 6 7 8 7 7 7 6 6 6 6 6 6 7 7 7 7 6 7 6 7 6 5 5 4 5 5 6 6 6 5 5 5 5 5 6 6 5 5 5 5 4 5 4 4 4 4 4 5 4 4 4
5 6 6 6 6 6 5 6 6 8 6 8 8 7 7 8 8 7 8 6 7 7 7 7 7 6 7 6 7 7 6 5 5 5 6 5 4 4 4 5 5 5 5 5 6 5 5 5 5 4 4 4 3 4 4 5 5 6 6 6 5 4
5 5 5 5 5 5 5 6 7 6 7 7 7 9 9 8 7 8 6 7 7 8 8 7 7 7 6 7 6 8 6 6 5 5 4 5 6 4 5 5 4 4 4 4 4 4 4 4 5 4 4 5 5 5 5 5 5 5 5 4 6 5
6 5 5 4 6 6 7 6 7 7 7 6 7 8 7 9 8 7 7 6 7 7 8 7 5 6 6 8 7 8 7 6 6 4 5 6 4 4 4 4 4 4 4 4 4 4 4 4 4 5 5 6 7 6 4 4 4 5 5 5 6 6
6 6 6 6 6 6 6 6 6 7 7 7 6 8 7 6 8 7 7 7 8 7 7 7 7 7 7 9 7 7 6 5 5 4 6 5 4 4 4 4 5 4 4 4 5 5 5 5 5 5 5 6 4 4 5 4 4 4 5 6 6 7
5 6 7 7 6 6 6 6 6 6 6 6 7 8 8 7 7 7 7 8 8 7 8 7 6 8 7 8 6 7 5 5 4 3 4 4 4 6 5 4 5 5 5 5 6 5 5 5 5 5 4 4 4 4 5 4 4 4 4 5 6 7
7 7 7 7 7 6 6 7 7 7 7 6 7 7 6 7 6 8 7 8 10 7 8 7 6 8 7 7 6 6 5 4 4 4 5 5 5 4 5 6 5 6 5 6 4 4 4 4 4 4 5 4 4 4 4 4 4 4 5 5 6 7
6 6 6 6 6 7 7 6 6 6 6 6 5 8 7 7 6 7 8 8 10 8 8 6 6 7 6 6 5 5 4 5 5 5 4 4 5 5 5 4 5 3 4 4 4 4 4 4 4 4 4 5 5 4 4 4 4 4 5 5 6 6
8 7 6 6 7 6 7 7 7 7 7 6 5 5 7 7 7 7 8 7 8 8 7 6 6 6 5 5 5 4 4 5 5 5 5 4 4 4 4 4 4 4 3 4 4 4 4 4 4 4 4 4 4 4 4 5 5 5 5 5 6 7
8 8 8 8 8 7 6 5 7 8 8 8 6 6 7 7 8 8 7 8 8 7 6 5 5 5 5 4 4 4 5 5 5 5 4 4 4 3 2 2 3 4 3 3 4 4 4 4 4 4 4 4 4 5 5 5 6 7 7 7 7 7
10 10 10 9 9 9 9 8 7 5 5 5 6 7 7 7 8 8 8 7 8 6 5 5 4 4 5 5 5 6 5 5 4 3 3 3 3 2 2 2 2 3 4 3 3 4 4 4 5 4 4 6 6 5 6 6 6 7 8 8 8 7
10 11 11 10 11 11 10 8 8 7 8 7 6 7 6 7 7 9 8 8 7 6 5 6 5 5 5 6 5 4 4 3 3 3 3 4 3 3 3 3 3 3 3 4 5 5 4 5 4 6 11 9 6 6 6 6 7 7 7 8 9 9
10 10 12 12 11 11 10 9 9 8 7 7 7 7 6 7 8 7 8 7 5 6 5 6 5 5 6 4 4 3 3 3 3 3 4 4 3 3 3 3 3 4 3 4 4 6 6 6 6 10 11 11 13 7 5 6 7 6 7 8 9 10
14 14 14 13 11 11 10 10 9 9 9 8 8 7 7 7 7 8 7 6 6 5 5 5 5 5 4 4 4 3 3 3 4 4 4 3 3 4 3 3 3 4 4 4 4 5 6 6 8 12 12 12 12 11 8 6 7 7 7 7 9 9
17 15 12 11 12 12 12 12 12 11 10 9 8 8 8 7 8 8 7 6 6 5 5 5 5 4 4 4 3 3 4 4 4 3 3 3 3 3 3 4 4 4 4 3 4 5 6 6 8 11 12 11 12 13 12 7 6 8 9 9 9 9
9 10 12 12 12 11 10 9 10 10 8 9 8 9 8 9 7 7 7 6 6 5 5 5 5 4 4 3 4 4 4 3 3 3 3 3 3 3 4 4 4 4 4 4 4 5 6 7 8 11 12 12 14 15 12 6 7 7 8 9 9 9
11 10 11 12 12 10 10 8 8 9 9 8 9 7 9 7 8 7 7 7 5 5 5 5 4 4 4 4 4 4 3 2 2 3 3 3 3 4 4 5 4 5 4 4 4 4 6 6 11 11 12 13 16 17 11 6 7 8 9 9 8 9
18 19 16 10 11 10 10 11 10 11 10 7 9 9 8 8 8 7 6 6 5 5 4 5 4 4 4 4 4 3 2 2 2 3 3 3 3 3 3 4 4 5 5 4 4 5 7 6 11 13 13 14 15 18 9 7 8 9 10 11 10 9
11 10 10 10 11 12 11 11 11 11 11 10 8 9 8 8 8 7 7 6 5 5 4 4 5 4 4 3 3 2 1 2 3 3 3 3 4 4 4 4 4 4 4 4 4 5 7 5 7 13 15 15 17 12 8 8 9 10 11 12 12 10
9 10 13 12 11 9 9 10 11 12 12 10 9 10 9 8 8 7 7 6 5 5 4 4 5 4 4 3 2 1 1 2 2 3 2 3 4 4 4 4 4 4 4 4 4 4 6 7 6 11 14 17 18 13 9 8 9 11 11 12 12 11
14 13 12 13 13 11 11 12 12 12 12 11 10 9 10 9 8 8 7 6 5 5 5 5 4 4 4 3 1 1 1 2 3 3 3 4 4 5 5 4 4 4 4 4 4 6 6 7 6 10 15 18 19 14 8 8 8 10 12 12 13 13
13 12 15 16 16 13 13 12 12 11 12 11 10 10 10 9 7 7 6 6 6 5 5 4 4 4 3 1 1 1 2 2 3 3 3 4 4 4 4 3 3 4 5 4 5 5 5 7 7 6 14 17 18 19 11 8 8 11 13 13 12 13
16 19 19 14 13 13 12 12 12 12 10 11 10 10 8 7 7 7 7 6 6 5 4 4 4 3 2 0 0 1 2 2 3 4 3 3 3 3 3 4 5 5 6 5 5 5 4 4 7 7 12 15 17 19 16 8 9 9 11 12 14 11
8 7 7 7 12 12 12 12 12 11 11 10 9 8 6 7 7 7 6 6 5 5 5 4 3 1 0 0 0 1 2 3 3 3 3 2 2 4 6 5 6 7 8 6 4 4 5 4 6 8 11 16 17 17 18 10 8 11 11 13 13 12
9 9 8 7 8 8 9 11 12 10 9 10 8 7 7 7 7 7 6 6 5 4 4 3 2 0 0 1 1 1 2 3 2 2 1 1 3 5 7 7 7 7 9 9 6 4 5 6 5 10 10 15 18 18 17 18 13 20 13 11 13 14
8 9 6 6 5 6 6 10 12 10 10 9 6 7 7 7 6 7 7 6 5 4 3 2 1 1 0 0 1 2 3 2 1 1 2 3 5 6 7 6 6 7 8 10 11 9 5 5 7 10 13 12 17 18 19 20 21 21 14 13 12 13
13 10 8 5 5 4 6 6 12 12 12 8 7 7 8 7 7 7 7 6 5 4 2 1 1 0 0 1 1 2 1 1 1 2 2 4 6 6 5 5 5 6 7 8 9 10 8 6 7 7 10 16 16 20 21 22 24 23 23 15 11 12
8 10 10 6 3 5 4 6 9 15 10 8 7 7 7 8 8 8 6 6 4 4 3 2 1 0 0 1 1 0 1 1 1 2 4 6 6 4 5 5 5 6 6 7 8 9 10 9 7 9 9 9 12 15 20 24 23 23 23 22 18 24
10 10 9 9 3 4 5 6 5 6 8 8 8 7 7 8 8 8 6 5 5 3 3 3 2 2 1 1 0 0 0 1 1 4 5 4 4 3 3 4 5 6 6 7 8 10 10 9 8 9 10 10 11 12 14 14 14 19 20 13 11 15
11 11 10 9 6 5 6 7 7 7 7 7 8 8 8 8 7 8 7 6 4 4 3 3 3 3 2 1 0 1 2 3 3 4 3 1 3 2 4 3 5 6 6 7 9 10 10 10 8 9 11 13 13 13 12 12 10 10 9 11 10 11
11 10 10 9 6 6 7 7 7 7 7 7 7 8 9 9 7 6 6 5 5 5 3 3 2 2 2 1 2 4 3 2 2 1 3 3 4 3 2 2 3 4 3 4 6 9 11 12 10 10 16 17 21 18 15 13 12 13 13 18 28 20
11 12 11 8 7 7 8 8 7 6 6 5 6 7 9 9 8 6 6 5 5 4 3 3 2 1 2 3 5 4 4 7 5 2 1 3 4 4 7 6 2 3 4 4 4 5 7 10 13 23 27 26 26 27 27 24 24 23 20 24 31 22
8 9 9 9 8 8 8 8 7 7 6 6 6 7 8 8 8 7 6 6 5 5 4 3 3 2 4 3 3 3 4 5 6 6 7 5 6 6 6 6 6 10 11 9 5 5 13 16 20 24 25 27 27 29 29 29 28 27 26 26 20 14
11 12 12 9 9 9 8 8 7 6 6 6 6 6 7 7 8 9 7 6 5 5 4 3 3 3 3 1 2 5 6 6 4 3 6 8 7 7 6 5 10 11 12 15 13 11 5 12 17 21 23 25 27 27 28 28 29 28 28 27 25 12
10 8 8 9 9 9 8 8 7 6 6 6 6 6 7 7 7 7 7 6 5 5 4 3 3 2 2 3 5 5 5 4 2 2 1 4 6 4 3 6 9 12 14 16 16 16 15 17 20 24 24 24 25 25 25 26 27 25 26 26 15 11
7 8 9 9 9 9 9 9 8 7 6 6 6 6 6 6 6 6 7 7 6 6 5 4 3 3 3 4 5 4 2 0 0 1 1 1 1 2 4 5 8 10 13 14 15 15 17 19 22 23 24 25 24 25 25 24 19 22 22 18 11 11
6 7 8 9 9 9 9 9 7 7 6 6 6 7 6 6 6 6 5 7 5 5 5 4 4 4 4 4 3 1 1 0 0 1 1 2 3 3 4 4 4 6 11 10 9 13 18 20 21 22 22 24 24 25 26 24 13 13 12 10 8 10
5 6 7 8 8 9 9 8 7 7 7 7 7 7 7 7 7 6 6 5 5 5 4 4 4 4 5 5 2 3 1 1 0 1 1 2 1 2 3 2 2 3 6 9 10 14 17 19 20 20 20 20 22 23 23 14 14 13 13 13 13 12
Wind_Direction
123 120 118 113 105 102 107 107 105 103 101 103 109 114 116 115 111 106 98 99 102 103 101 99 93 91 91 91 92 90 91 89 84 79 76 61 43 46 37 34 33 30 31 39 30 27 22 18 20 14 15 18 15 359 349 336 355 358 340 328 350 322
132 133 130 124 119 113 109 107 103 101 107 106 106 102 102 100 99 103 103 102 105 103 95 88 93 95 100 104 107 98 91 88 81 75 64 56 55 52 47 44 34 26 28 24 35 28 23 20 7 13 8 15 19 2 357 345 4 356 345 328 329 323
130 126 122 115 106 100 99 105 109 111 106 106 109 114 111 105 108 107 109 109 105 104 103 104 103 102 105 97 89 88 81 74 70 67 75 67 48 49 47 44 33 26 26 31 36 41 29 28 14 12 16 19 7 5 2 351 359 350 326 326 315 314
134 125 109 107 107 107 106 109 109 106 107 113 113 108 111 119 117 118 118 109 111 109 109 106 102 100 93 89 81 79 76 67 65 66 58 64 41 56 53 47 33 33 28 33 26 30 27 22 20 10 21 15 5 350 356 350 343 336 317 319 308 304
143 137 132 128 124 123 117 113 112 117 117 115 116 118 120 121 124 122 120 116 112 107 104 102 96 95 90 86 79 79 73 70 64 59 73 64 49 51 60 43 38 27 25 24 18 18 16 11 6 4 13 3 354 335 322 322 327 322 316 316 305 304
136 131 133 131 131 129 124 121 117 116 117 121 122 122 127 123 123 122 116 111 102 101 98 94 98 90 88 85 85 83 77 76 75 76 74 67 53 41 24 42 29 26 19 14 6 8 1 355 350 342 343 327 324 317 307 308 314 310 304 297 297 299
151 152 147 143 136 129 127 127 128 126 128 127 126 124 124 120 122 116 112 110 105 98 97 95 93 94 87 89 86 87 85 76 72 58 55 46 41 34 30 17 25 20 9 358 346 339 336 327 322 325 320 315 304 294 285 284 293 300 296 290 288 291
154 150 148 141 140 139 135 132 131 130 125 127 133 128 122 118 113 112 111 109 105 102 97 98 92 89 91 92 86 84 77 69 58 53 46 50 37 24 27 26 1 8 334 329 323 320 315 313 314 305 300 300 302 296 283 274 280 281 282 286 286 288
163 153 146 145 145 144 144 142 139 134 130 124 123 120 119 123 115 112 107 105 103 102 96 93 91 90 89 87 85 75 65 60 54 48 37 24 47 40 13 2 349 319 322 311 320 313 305 304 298 292 289 289 288 286 289 294 293 292 292 288 290 290
157 158 155 150 151 148 143 141 141 143 142 136 132 125 120 120 115 111 107 106 100 98 98 96 94 88 86 80 73 66 59 48 39 33 24 36 26 14 358 334 309 294 305 297 301 294 295 295 298 294 289 288 293 298 294 294 300 301 298 294 289 284
169 162 162 159 153 151 150 145 140 131 122 123 127 123 125 127 118 113 111 106 105 108 107 98 89 82 76 68 61 52 43 35 26 21 20 27 17 360 327 294 294 316 320 312 304 307 310 309 302 299 306 313 310 305 306 304 300 296 294 288 280 273
167 167 164 163 162 158 154 149 148 149 144 141 135 127 137 122 120 118 114 112 116 115 107 101 94 88 76 63 57 49 39 31 16 15 13 10 4 338 313 315 321 336 324 325 322 319 314 305 295 298 303 304 299 301 296 293 286 285 283 287 291 288
172 170 171 172 168 162 154 154 153 148 144 144 141 137 138 125 121 116 121 120 121 116 109 104 102 94 86 83 64 48 35 18 13 18 11 1 345 321 315 324 332 326 322 316 314 316 315 310 306 303 301 300 304 302 297 288 290 284 283 286 291 297
180 181 178 173 167 162 159 158 157 154 156 153 145 140 131 123 123 124 121 120 116 109 107 107 102 95 97 87 71 57 34 25 24 14 358 338 327 311 319 333 319 319 318 318 311 300 293 293 289 293 294 297 303 316 311 304 300 300 295 290 291 294
187 181 171 166 169 169 173 161 157 164 158 148 150 134 128 128 127 125 120 119 115 113 110 106 104 104 94 82 71 58 40 33 18 356 340 316 297 310 329 319 327 312 310 298 292 289 288 287 285 293 299 306 319 320 320 306 298 299 297 296 294 292
178 178 176 173 172 169 161 166 156 150 148 142 139 134 133 131 128 124 125 120 119 120 116 113 109 103 90 73 59 51 39 27 353 316 301 301 319 332 322 320 313 300 295 286 281 284 285 293 294 307 313 316 320 319 321 307 303 297 290 292 293 293
173 165 169 174 170 159 147 147 148 142 141 144 136 138 134 133 129 125 128 125 128 122 117 115 111 99 82 66 58 51 36 10 337 328 312 312 310 318 313 309 310 297 290 289 281 282 292 293 309 318 322 325 325 325 328 311 303 299 296 295 293 290
179 179 177 157 151 157 159 154 153 145 146 143 139 138 136 134 130 130 129 128 129 127 126 118 111 97 82 69 58 56 20 349 323 307 308 315 316 311 301 295 280 281 296 298 305 313 315 321 327 326 328 331 331 331 328 321 314 312 308 305 305 300
165 157 143 151 156 156 159 154 150 145 141 142 145 137 137 134 135 138 136 135 130 125 123 117 111 96 81 78 68 45 357 333 317 313 311 330 308 299 289 275 277 278 293 309 318 323 316 326 333 331 331 334 335 332 328 326 322 316 314 310 310 309
138 141 149 150 156 156 148 152 151 148 146 147 146 141 140 140 143 142 137 135 131 122 118 112 106 100 83 78 78 33 322 307 303 281 288 293 296 295 277 279 286 289 291 304 317 312 314 320 335 335 333 336 338 336 330 325 323 315 313 312 310 310
154 150 146 149 156 165 160 157 154 149 149 150 149 145 144 148 147 144 140 136 127 117 110 107 97 92 86 76 53 11 298 290 275 276 292 277 266 269 280 289 299 309 313 314 315 318 321 317 333 344 339 338 339 339 332 328 323 316 313 313 312 311
130 148 160 168 170 158 158 155 155 154 151 153 148 148 152 152 146 133 122 119 115 110 99 96 89 79 88 84 10 321 280 270 294 290 273 275 260 271 287 287 306 329 330 329 333 337 337 329 331 344 340 339 338 338 334 327 327 321 315 313 311 314
163 169 172 168 155 155 157 157 153 156 155 149 149 153 148 138 127 121 119 115 109 103 97 83 89 83 66 108 195 267 287 291 280 282 277 276 283 289 317 351 350 343 337 340 334 330 334 327 324 329 338 340 338 335 335 325 321 314 310 311 313 314
143 134 134 147 154 154 158 157 155 151 150 148 148 143 132 125 120 117 115 112 107 106 101 95 69 91 138 292 24 315 296 285 269 268 276 287 321 1 5 355 357 347 334 335 335 335 333 333 335 329 333 336 336 333 332 329 320 324 323 319 311 310
145 146 141 140 147 152 157 152 148 147 145 142 142 132 125 117 118 115 114 111 111 108 102 97 111 95 142 249 261 199 256 263 262 279 273 352 14 24 13 3 352 348 337 331 339 360 348 340 338 336 331 330 332 333 334 334 332 331 326 314 307 308
128 127 119 121 129 143 150 152 145 143 139 141 138 125 118 117 117 118 115 118 114 107 114 117 126 216 244 224 264 243 234 271 264 297 23 25 31 26 12 358 349 345 347 342 332 338 353 345 334 331 331 327 331 335 335 333 331 330 323 317 305 303
142 133 120 109 112 125 139 147 143 139 143 151 140 139 134 129 125 123 124 124 125 125 141 114 170 163 8 274 216 229 244 276 286 12 356 39 31 31 16 344 349 348 336 332 328 324 330 337 329 322 329 333 332 333 332 332 332 330 328 319 306 302
120 129 130 105 86 106 121 138 151 149 156 143 140 135 132 128 126 127 129 129 131 155 159 145 143 130 236 275 260 246 256 340 356 30 24 40 30 20 2 340 347 342 338 327 320 320 322 330 331 328 329 333 330 330 331 331 329 326 325 321 310 309
138 145 144 142 121 116 113 119 104 118 134 141 135 132 130 127 128 130 132 142 154 161 144 136 150 188 236 242 253 261 311 6 23 41 35 34 20 356 347 345 341 339 337 329 321 320 323 329 335 334 333 334 330 328 328 328 327 328 325 318 309 314
153 155 155 153 151 132 124 119 126 133 133 133 133 134 130 131 137 139 144 155 153 142 136 153 164 170 207 219 188 48 17 15 46 46 15 350 308 321 330 339 336 334 333 327 323 322 325 329 338 340 338 335 333 331 329 330 327 328 327 322 317 312
158 161 156 152 150 139 132 129 129 135 137 137 139 139 135 137 136 137 145 148 128 137 141 165 180 186 176 112 47 37 26 6 355 351 306 263 205 203 225 297 320 307 286 304 322 331 328 328 333 335 329 326 326 326 327 330 333 331 326 323 323 320
160 159 158 154 154 151 145 141 138 135 131 135 139 138 140 141 140 142 146 138 136 159 160 168 176 156 86 72 62 46 20 8 13 357 331 289 316 343 347 355 331 314 340 353 333 336 334 324 318 322 327 327 327 326 326 324 324 325 322 322 324 324
158 154 155 161 159 159 153 147 144 141 143 144 147 146 147 145 142 142 143 144 161 167 167 164 136 105 73 70 89 92 69 28 5 15 22 24 15 350 345 350 17 18 4 354 335 330 329 322 322 326 328 329 329 328 327 328 328 329 328 328 327 326
170 174 170 162 164 160 155 149 151 151 150 148 145 150 152 156 152 154 161 159 167 156 152 145 120 99 101 116 87 69 66 67 62 3 28 24 345 333 343 40 29 7 356 350 344 338 318 328 331 331 331 330 329 328 327 328 330 331 331 330 331 318
172 162 159 163 164 159 155 154 158 157 156 153 153 154 158 159 152 150 155 162 158 153 142 127 121 136 171 108 67 53 62 86 126 150 295 344 5 22 39 30 4 355 350 346 344 345 343 340 339 337 336 333 330 329 329 328 329 330 330 330 328 317
157 158 161 166 168 161 159 164 169 165 161 153 152 150 156 153 153 158 157 160 159 149 146 145 159 165 120 91 80 78 80 346 158 67 69 57 14 41 5 351 341 338 343 342 346 347 350 346 342 340 336 335 334 334 332 332 329 325 327 329 318 312
153 161 170 170 165 162 168 172 174 164 161 154 146 142 140 144 147 154 160 156 151 149 152 160 167 134 100 91 97 126 194 202 293 7 20 18 20 359 345 319 309 324 338 343 347 352 351 346 342 339 337 338 340 339 337 336 330 331 332 330 318 321
158 169 172 175 172 169 170 179 177 168 160 151 145 144 148 154 161 162 165 161 158 159 163 162 141 114 113 123 168 192 190 164 151 80 7 358 357 341 322 292 299 299 315 346 357 357 351 346 341 337 340 344 345 345 348 344 340 336 338 341 339 336